User: anonymous   Login
Location: Unspecified
(0.0000°N, 0.0000°E)
Time: 00:11:12
(UTC+00:00)
Language:

STARLINK-5011 - Orbit

View from above orbital plane
View from above orbital plane
View from above satellite
View from above satellite

Ground track
Ground track

The orbit is defined by the following mean orbital elements,

1 53925U          26145.48182270 +.00000000 +00000-0 +46894-4 0 00002
2 53925  53.2137 328.9887 0001326  92.8307 267.2837 15.08835846    06
Epoch (UTC): 25 May 2026 11:33:49
Eccentricity: 0.0001326
inclination: 53.2137°
perigee height: 539 km
apogee height: 541 km
right ascension of ascending node: 328.9887°
argument of perigee: 92.8307°
revolutions per day: 15.08835846
mean anomaly at epoch: 267.2837°

The dashed part of the orbit path shows where the satellite is in the earth's shadow,  

DLR